This is the latest recevied weather packets stored in our database for station/object E25WOP-13. If no packets are shown the sender has not sent any weather packets the latest 10 day(s).
| Time | Temp. | Humidity | Pressure | Rain* | Wind** | Luminosity | Snow |
|---|---|---|---|---|---|---|---|
| 1777627927 | -17.78° C | - | 1004.5 hPa | 0 mm | - | - | - |
| 1777627327 | 32.78° C | 62% | 1004.7 hPa | 0 mm | - | 171 W/m² | - |
| 1777626727 | 32.78° C | 61% | 1004.8 hPa | 0 mm | - | 184 W/m² | - |
| 1777626127 | 32.78° C | 60% | 1005.1 hPa | 0 mm | - | 230 W/m² | - |
| 1777625527 | 32.22° C | 67% | 1005.3 hPa | 0 mm | - | 250 W/m² | - |
| 1777624927 | 32.78° C | 67% | 1005.3 hPa | 0 mm | - | 265 W/m² | - |
| 1777624327 | 32.78° C | 65% | 1005.5 hPa | 0 mm | - | 293 W/m² | - |
| 1777623727 | 32.78° C | 66% | 1005.2 hPa | 0 mm | - | 318 W/m² | - |
| 1777623127 | 32.22° C | 70% | 1005.4 hPa | 0 mm | - | 344 W/m² | - |
| 1777622527 | 32.22° C | 70% | 1005.5 hPa | 0 mm | - | 367 W/m² | - |
| 1777621927 | 32.78° C | 69% | 1005.7 hPa | 0 mm | - | 391 W/m² | - |
| 1777621327 | 33.33° C | 69% | 1005.9 hPa | 0 mm | - | 434 W/m² | - |
| 1777620727 | 32.78° C | 69% | 1006.3 hPa | 0 mm | - | 487 W/m² | - |
| 1777620127 | 32.78° C | 66% | 1006.5 hPa | 0 mm | - | 509 W/m² | - |
| 1777619527 | 32.78° C | 68% | 1006.8 hPa | 0 mm | - | 524 W/m² | - |
| 1777618927 | 32.78° C | 71% | 1006.7 hPa | 0 mm | - | 726 W/m² | - |
| 1777618327 | 32.22° C | 71% | 1006.9 hPa | 0 mm | - | 1100 W/m² | - |
| 1777617727 | 32.22° C | 72% | 1007.2 hPa | 0 mm | - | 704 W/m² | - |
| 1777617127 | 32.78° C | 73% | 1007.4 hPa | 0 mm | - | 410 W/m² | - |
| 1777616527 | 32.22° C | 73% | 1007.8 hPa | 0 mm | - | 1141 W/m² | - |
| 1777615927 | 32.78° C | 73% | 1007.6 hPa | 0 mm | - | 1100 W/m² | - |
| 1777615327 | 32.22° C | 75% | 1007.8 hPa | 0 mm | - | 1101 W/m² | - |
| 1777614727 | 31.67° C | 76% | 1007.9 hPa | 0 mm | - | 1143 W/m² | - |
| 1777614126 | 31.11° C | 78% | 1007.8 hPa | 0 mm | - | 1144 W/m² | - |
| 1777613526 | 31.11° C | 81% | 1008 hPa | 0 mm | - | 1143 W/m² | - |
* Rain latest hour (hover to see other rain measurements)
** Current wind speed in m/s (hover to see current wind gust speed)